Simultaneous Nadir Overpasses (SNOs) Predictions

Prediction of SNOs between NOAA-20 and LANDSAT-8 Satellite Orbit:

Table of predicted SNOs for the next 14.0 days since TLE Epoch: 10/28/2022
Index Date (NOAA-20) Time (NOAA-20) Lat,Lon (NOAA-20) SZA (NOAA-20 ) Date (LANDSAT-8) Time (LANDSAT-8) Lat,Lon (LANDSAT-8) SZA (LANDSAT-8 ) Distance(km) Time Diff (sec)
1 10/31/2022 07:23:04 -70.08,-114.48 95.91 10/31/2022 07:23:47 -70.07,-114.42 95.92 2.86 43
2 10/31/2022 08:13:47 69.92, 53.07 83.95 10/31/2022 08:13:15 69.91, 53.01 83.94 2.41 32
3 11/02/2022 22:49:29 70.84,-167.25 85.71 11/02/2022 22:50:36 70.74,-165.17 85.62 76.63 67
4 11/02/2022 23:39:57 -70.01, 1.40 95.12 11/02/2022 23:40:17 -70.03, 1.41 95.10 2.63 20
5 11/03/2022 00:30:41 69.90, 168.86 84.79 11/03/2022 00:29:44 69.93, 168.91 84.81 3.16 57
6 11/05/2022 15:06:09 70.10, -50.29 85.79 11/05/2022 15:07:17 70.08, -50.27 85.77 1.87 68
7 11/05/2022 15:56:51 -70.00, 117.19 94.31 11/05/2022 15:56:47 -69.98, 117.21 94.33 2.47 4
8 11/05/2022 16:47:30 69.63, -74.96 85.34 11/05/2022 16:46:18 69.65, -75.60 85.35 24.72 72
9 11/08/2022 07:23:02 70.05, 65.57 86.53 11/08/2022 07:23:46 70.06, 65.59 86.55 2.22 44
10 11/08/2022 08:13:43 -69.94,-126.95 93.57 11/08/2022 08:13:15 -69.96,-126.93 93.56 2.32 28
11 11/10/2022 22:49:27 -70.98, 12.54 91.79 11/10/2022 22:50:33 -70.90, 15.06 91.86 92.10 66
12 11/10/2022 23:39:54 70.00,-178.58 87.24 11/10/2022 23:40:14 70.03,-178.58 87.27 3.30 20
13 11/11/2022 00:30:37 -69.94, -11.18 92.81 11/11/2022 00:29:44 -69.92, -11.10 92.83 3.58 53



Historial Predications of SNOs between NOAA-20 and LANDSAT-8
